Clarksburg, WV

9:59 AM EST on December 09, 2019 (GMT -0500)
Benedum

Weather History for KCKB - October, 2019

Change the Weather History Date:

Sunday, October 27, 2019

  Actual Average Record
Temperature  
Mean Temperature 59 °F -  
Max Temperature 72 °F 62 °F 79 °F (1984)
Min Temperature 46 °F 36 °F 16 °F (1962)
Degree Days  
Heating Degree Days 6    
Month to date heating degree days 160  
Growing Degree Days 11 (Base 50)    
Moisture  
Dew Point 55 °F    
Average Humidity 68    
Maximum Humidity 87    
Minimum Humidity 49    
Precipitation  
Precipitation 0.44 in - - ()
Month to date precipitation 2.47  
Year to date precipitation 34.54  
Sea Level Pressure  
Sea Level Pressure 29.84 in    
Wind  
Wind Speed 9 mph (WSW)    
Max Wind Speed 21 mph    
Max Gust Speed 27 mph    
Visibility 8 miles    
Events Rain    
Averages and records for this station are not official NWS values.
T = Trace of Precipitation, MM = Missing Value Source: NWS Daily Summary

Daily Weather History Graph

Daily Weather History Graph

Search for Another Location

Airport or City:

Astronomy

Oct. 27, 2019 Rise Set
Actual Time 7:43 AM EDT 6:25 PM EDT
Civil Twilight 7:15 AM EDT 6:53 PM EDT
Nautical Twilight 6:44 AM EDT 7:24 PM EDT
Astronomical Twilight 6:12 AM EDT 7:55 PM EDT
Moon 6:50 AM EDT (10/27) 6:34 PM EDT (10/27)
Length of Visible Light 11h 37m
Length of Day
10h 42m
Waning Crescent, 0% of the Moon is Illuminated
Oct 27
Waning Crescent
Oct 27
New
Nov 4
First Quarter
Nov 12
Full
Nov 19
Last Quarter

Hourly Weather History & Observations

Time (EDT) Temp. Dew Point Humidity Pressure Visibility Wind Dir Wind Speed Gust Speed Precip Events Conditions
12:53 AM 66.0 °F 55.9 °F 70% 29.74 in 10.0 mi SE 11.5 mph 20.7 mph 0.04 in   Mostly Cloudy
1:53 AM 68.0 °F 55.0 °F 63% 29.70 in 10.0 mi SE 13.8 mph 20.7 mph 0.00 in Rain Light Rain
2:53 AM 70.0 °F 55.9 °F 61% 29.68 in 10.0 mi SSE 12.7 mph 24.2 mph 0.00 in   Scattered Clouds
3:53 AM 71.1 °F 55.9 °F 59% 29.65 in 10.0 mi SSE 9.2 mph - N/A   Mostly Cloudy
4:53 AM 66.9 °F 59.0 °F 76% 29.70 in 4.0 mi West 10.4 mph - 0.04 in Rain Rain
5:11 AM 64.9 °F 60.1 °F 84% 29.75 in 2.0 mi WSW 5.8 mph - 0.13 in Rain Heavy Rain
5:13 AM 64.9 °F 60.1 °F 84% 29.75 in 1.8 mi WSW 6.9 mph - 0.14 in Rain Heavy Rain
5:15 AM 64.9 °F 60.1 °F 84% 29.75 in 2.0 mi SW 8.1 mph - 0.16 in Rain Heavy Rain
5:38 AM 64.9 °F 61.0 °F 87% 29.76 in 4.0 mi WSW 5.8 mph - 0.30 in Rain Rain
5:45 AM 64.9 °F 61.0 °F 87% 29.76 in 5.0 mi WSW 6.9 mph - 0.31 in Rain Light Rain
5:49 AM 64.4 °F 60.8 °F 88% 29.77 in 5.0 mi West 5.8 mph - 0.31 in Rain Light Rain
5:53 AM 64.9 °F 61.0 °F 87% 29.74 in 5.0 mi West 5.8 mph - 0.32 in Rain Rain
6:05 AM 64.9 °F 61.0 °F 87% 29.78 in 4.0 mi West 6.9 mph - 0.03 in Rain Rain
6:13 AM 64.9 °F 61.0 °F 87% 29.78 in 2.5 mi West 6.9 mph - 0.06 in Rain Heavy Rain
6:16 AM 64.9 °F 61.0 °F 87% 29.77 in 3.0 mi West 6.9 mph - 0.07 in Rain Rain
6:23 AM 64.9 °F 61.0 °F 87% 29.76 in 5.0 mi Variable 5.8 mph - 0.08 in Rain Rain
6:53 AM 64.9 °F 60.1 °F 84% 29.75 in 10.0 mi SW 10.4 mph - 0.08 in Rain Light Rain
7:21 AM 64.9 °F 59.0 °F 81% 29.80 in 10.0 mi SW 10.4 mph - 0.00 in   Mostly Cloudy
7:53 AM 64.9 °F 57.0 °F 75% 29.78 in 10.0 mi WSW 9.2 mph 19.6 mph 0.00 in   Mostly Cloudy
8:53 AM 64.0 °F 57.0 °F 78% 29.81 in 10.0 mi SW 11.5 mph - N/A   Mostly Cloudy
9:53 AM 64.9 °F 55.0 °F 70% 29.84 in 10.0 mi WSW 16.1 mph 26.5 mph N/A   Mostly Cloudy
10:42 AM 66.9 °F 54.0 °F 63% 29.88 in 10.0 mi WSW 13.8 mph - N/A   Mostly Cloudy
10:53 AM 66.0 °F 54.0 °F 65% 29.85 in 10.0 mi SW 17.3 mph 25.3 mph N/A   Overcast
11:53 AM 66.0 °F 52.0 °F 60% 29.88 in 10.0 mi West 12.7 mph 21.9 mph N/A   Overcast
12:04 PM 66.0 °F 52.0 °F 60% 29.92 in 10.0 mi WSW 16.1 mph 21.9 mph N/A   Overcast
12:29 PM 64.9 °F 51.1 °F 61% 29.92 in 10.0 mi West 12.7 mph 23.0 mph N/A   Overcast
12:53 PM 66.0 °F 52.0 °F 60% 29.90 in 10.0 mi West 15.0 mph 27.6 mph N/A   Overcast
1:53 PM 68.0 °F 51.1 °F 55% 29.90 in 10.0 mi West 15.0 mph 24.2 mph N/A   Overcast
2:53 PM 68.0 °F 50.0 °F 52% 29.91 in 10.0 mi WSW 16.1 mph 21.9 mph N/A   Mostly Cloudy
3:53 PM 68.0 °F 48.9 °F 50% 29.92 in 10.0 mi West 11.5 mph - N/A   Partly Cloudy
4:53 PM 66.9 °F 48.0 °F 51% 29.95 in 10.0 mi West 13.8 mph 21.9 mph N/A   Partly Cloudy
5:53 PM 64.9 °F 48.0 °F 54% 29.97 in 10.0 mi West 10.4 mph - N/A   Clear
6:53 PM 62.1 °F 48.0 °F 60% 29.99 in 10.0 mi West 5.8 mph - N/A   Clear
7:53 PM 59.0 °F 48.0 °F 67% 30.01 in 10.0 mi WSW 4.6 mph - N/A   Clear
8:53 PM 55.0 °F 46.9 °F 74% 30.03 in 10.0 mi Calm Calm - N/A   Clear
9:53 PM 52.0 °F 46.0 °F 80% 30.05 in 10.0 mi Calm Calm - N/A   Clear
10:53 PM 51.1 °F 46.9 °F 86% 30.07 in 10.0 mi Calm Calm - N/A   Clear
11:53 PM 48.9 °F 45.0 °F 86% 30.08 in 3.0 mi Calm Calm - N/A   Clear